This is the latest recevied weather packets stored in our database for station/object IU2PLZ-10. If no packets are shown the sender has not sent any weather packets the latest 10 day(s).
| Time | Temp. | Humidity | Pressure | Rain* | Wind** | Luminosity | Snow |
|---|---|---|---|---|---|---|---|
| 1777801629 | 25° C | 42% | 970.3 hPa | - | - | - | - |
| 1777800728 | 24.44° C | 43% | 971.1 hPa | - | - | - | - |
| 1777799828 | 24.44° C | 43% | 971.2 hPa | - | - | - | - |
| 1777798928 | 24.44° C | 41% | 971.1 hPa | - | - | - | - |
| 1777798028 | 26.11° C | 40% | 971.2 hPa | - | - | - | - |
| 1777797128 | 25.56° C | 42% | 970.5 hPa | - | - | - | - |
| 1777796228 | 25° C | 42% | 971.1 hPa | - | - | - | - |
| 1777794427 | 25.56° C | 44% | 971.1 hPa | - | - | - | - |
| 1777793527 | 25° C | 45% | 971 hPa | - | - | - | - |
| 1777792627 | 24.44° C | 46% | 970.2 hPa | - | - | - | - |
| 1777791727 | 25° C | 47% | 971.1 hPa | - | - | - | - |
| 1777790826 | 23.89° C | 48% | 970.4 hPa | - | - | - | - |
| 1777789926 | 22.78° C | 50% | 970.3 hPa | - | - | - | - |
| 1777789026 | 22.22° C | 50% | 970.2 hPa | - | - | - | - |
| 1777788126 | 22.22° C | 52% | 970.3 hPa | - | - | - | - |
| 1777787226 | 21.67° C | 53% | 971 hPa | - | - | - | - |
| 1777786326 | 20° C | 54% | 970.1 hPa | - | - | - | - |
| 1777785425 | 19.44° C | 56% | 970.8 hPa | - | - | - | - |
| 1777784525 | 18.33° C | 58% | 970.7 hPa | - | - | - | - |
| 1777783625 | 16.67° C | 58% | 970.5 hPa | - | - | - | - |
| 1777782725 | 15.56° C | 60% | 970.5 hPa | - | - | - | - |
| 1777781825 | 13.89° C | 61% | 969.6 hPa | - | - | - | - |
| 1777780925 | 13.89° C | 59% | 969.7 hPa | - | - | - | - |
| 1777780024 | 14.44° C | 60% | 970.3 hPa | - | - | - | - |
| 1777779124 | 13.89° C | 60% | 969.6 hPa | - | - | - | - |
* Rain since midnight (hover to see other rain measurements)
** Current wind speed in m/s (hover to see current wind gust speed)